QPF
0.00 0.01 0.01 0.02 0.02 0.03 0.04 0.04 0.04 0.07 0.10 0.11 0.10 0.11 0.11 0.10 0.08 0.07 0.08 0.08 0.07 0.08 0.09 0.08 0.09 0.06 0.08 0.08 0.07 0.09 0.10 0.09 0.08 0.09 0.08 0.05 0.02 0.03 0.03 0.02 0.02 0.02 0.02
0.00 0.01 0.01 0.01 0.02 0.02 0.03 0.04 0.05 0.06 0.08 0.10 0.12 0.11 0.09 0.07 0.08 0.09 0.11 0.09 0.06 0.07 0.07 0.10 0.08 0.07 0.09 0.08 0.08 0.11 0.12 0.10 0.08 0.12 0.15 0.14 0.12 0.08 0.04 0.03 0.04 0.04 0.05
0.00 0.01 0.02 0.02 0.03 0.03 0.03 0.04 0.06 0.06 0.07 0.09 0.10 0.09 0.09 0.07 0.10 0.11 0.10 0.08 0.06 0.04 0.05 0.06 0.07 0.08 0.06 0.10 0.10 0.12 0.15 0.16 0.11 0.09 0.15 0.18 0.19 0.16 0.10 0.07 0.06 0.06 0.07
0.00 0.00 0.01 0.02 0.04 0.04 0.03 0.03 0.05 0.05 0.06 0.08 0.07 0.08 0.09 0.09 0.09 0.09 0.10 0.10 0.08 0.06 0.05 0.04 0.06 0.07 0.06 0.11 0.07 0.11 0.13 0.17 0.14 0.12 0.10 0.13 0.15 0.17 0.16 0.13 0.11 0.13 0.13
0.00 0.00 0.00 0.01 0.02 0.04 0.04 0.04 0.05 0.05 0.06 0.07 0.06 0.08 0.09 0.10 0.09 0.07 0.09 0.10 0.11 0.09 0.06 0.07 0.10 0.10 0.09 0.09 0.09 0.12 0.10 0.11 0.11 0.13 0.12 0.16 0.17 0.15 0.15 0.17 0.17 0.14 0.10
0.00 0.00 0.00 0.01 0.02 0.03 0.06 0.06 0.05 0.05 0.06 0.07 0.06 0.07 0.08 0.09 0.10 0.10 0.10 0.09 0.10 0.10 0.10 0.11 0.14 0.13 0.11 0.09 0.10 0.11 0.11 0.13 0.15 0.14 0.11 0.12 0.13 0.14 0.15 0.14 0.15 0.14 0.11
0.00 0.00 0.00 0.01 0.02 0.03 0.06 0.08 0.06 0.06 0.06 0.06 0.05 0.06 0.07 0.09 0.09 0.10 0.11 0.10 0.10 0.11 0.11 0.11 0.14 0.13 0.11 0.11 0.14 0.14 0.14 0.15 0.14 0.12 0.11 0.10 0.10 0.10 0.11 0.11 0.11 0.12 0.12
0.00 0.00 0.00 0.00 0.01 0.03 0.05 0.06 0.05 0.05 0.05 0.06 0.05 0.05 0.07 0.08 0.08 0.10 0.09 0.10 0.08 0.07 0.08 0.09 0.11 0.10 0.10 0.09 0.13 0.11 0.12 0.12 0.11 0.09 0.12 0.11 0.10 0.10 0.10 0.11 0.12 0.14 0.15
0.00 0.01 0.01 0.00 0.01 0.02 0.02 0.02 0.02 0.03 0.04 0.05 0.07 0.06 0.06 0.07 0.08 0.08 0.08 0.08 0.09 0.07 0.07 0.09 0.11 0.13 0.13 0.11 0.12 0.12 0.11 0.12 0.09 0.09 0.10 0.09 0.09 0.09 0.08 0.10 0.12 0.13 0.14
0.00 0.00 0.00 0.00 0.01 0.01 0.01 0.02 0.02 0.02 0.03 0.04 0.05 0.05 0.04 0.05 0.07 0.07 0.08 0.08 0.08 0.08 0.08 0.09 0.11 0.11 0.11 0.11 0.13 0.11 0.10 0.10 0.09 0.10 0.09 0.08 0.07 0.07 0.07 0.08 0.08 0.10 0.13
0.00 0.01 0.01 0.00 0.01 0.01 0.02 0.03 0.02 0.02 0.03 0.03 0.03 0.04 0.03 0.03 0.05 0.06 0.06 0.07 0.07 0.07 0.07 0.08 0.09 0.08 0.08 0.10 0.11 0.09 0.09 0.08 0.09 0.08 0.07 0.07 0.08 0.08 0.07 0.07 0.08 0.10 0.13
0.00 0.00 0.00 0.00 0.00 0.01 0.02 0.02 0.02 0.02 0.02 0.03 0.03 0.03 0.03 0.03 0.04 0.06 0.07 0.06 0.06 0.06 0.06 0.06 0.06 0.06 0.08 0.09 0.08 0.05 0.05 0.06 0.06 0.05 0.05 0.05 0.06 0.06 0.06 0.07 0.07 0.09 0.12
0.02 0.01 0.00 0.00 0.00 0.00 0.01 0.01 0.03 0.02 0.02 0.03 0.03 0.04 0.04 0.05 0.05 0.07 0.08 0.07 0.06 0.06 0.06 0.09 0.08 0.08 0.08 0.08 0.07 0.05 0.05 0.06 0.06 0.06 0.04 0.04 0.04 0.05 0.05 0.06 0.07 0.08 0.09
0.03 0.02 0.00 0.00 0.00 0.00 0.00 0.00 0.01 0.02 0.03 0.04 0.05 0.06 0.07 0.08 0.06 0.06 0.07 0.07 0.07 0.06 0.06 0.07 0.06 0.07 0.08 0.07 0.07 0.07 0.07 0.07 0.07 0.06 0.05 0.06 0.06 0.06 0.06 0.06 0.07 0.09 0.10
0.01 0.01 0.01 0.01 0.01 0.01 0.01 0.01 0.00 0.02 0.03 0.04 0.06 0.07 0.07 0.05 0.04 0.04 0.04 0.05 0.05 0.05 0.06 0.05 0.05 0.05 0.07 0.07 0.08 0.08 0.09 0.09 0.08 0.07 0.06 0.07 0.07 0.07 0.07 0.07 0.08 0.10 0.10
0.01 0.01 0.00 0.01 0.01 0.02 0.02 0.01 0.01 0.02 0.02 0.03 0.04 0.06 0.05 0.04 0.04 0.04 0.03 0.03 0.04 0.04 0.04 0.04 0.05 0.06 0.07 0.10 0.11 0.13 0.14 0.14 0.11 0.08 0.06 0.07 0.07 0.07 0.07 0.06 0.06 0.06 0.08
0.00 0.01 0.01 0.01 0.01 0.01 0.01 0.02 0.03 0.04 0.03 0.04 0.04 0.05 0.04 0.05 0.05 0.05 0.04 0.04 0.05 0.05 0.04 0.04 0.04 0.04 0.04 0.05 0.07 0.10 0.10 0.09 0.08 0.08 0.08 0.07 0.06 0.07 0.06 0.06 0.07 0.06 0.07
0.01 0.01 0.01 0.01 0.01 0.01 0.01 0.03 0.04 0.05 0.05 0.06 0.07 0.05 0.05 0.05 0.05 0.05 0.05 0.06 0.06 0.06 0.05 0.04 0.04 0.03 0.02 0.02 0.02 0.03 0.03 0.04 0.05 0.05 0.05 0.04 0.04 0.05 0.06 0.06 0.06 0.06 0.08
0.01 0.01 0.02 0.01 0.01 0.02 0.02 0.02 0.03 0.04 0.05 0.06 0.06 0.05 0.05 0.04 0.04 0.05 0.08 0.08 0.08 0.07 0.06 0.05 0.04 0.03 0.03 0.04 0.03 0.01 0.01 0.02 0.03 0.04 0.03 0.03 0.03 0.04 0.04 0.03 0.04 0.06 0.08
0.01 0.01 0.02 0.01 0.01 0.01 0.01 0.01 0.02 0.03 0.03 0.03 0.04 0.04 0.05 0.05 0.05 0.06 0.08 0.10 0.10 0.10 0.08 0.06 0.04 0.03 0.03 0.02 0.01 0.01 0.01 0.02 0.02 0.02 0.02 0.03 0.03 0.04 0.04 0.04 0.05 0.06 0.08
0.01 0.01 0.01 0.01 0.01 0.01 0.01 0.01 0.02 0.02 0.02 0.02 0.03 0.05 0.05 0.05 0.06 0.07 0.07 0.07 0.06 0.06 0.06 0.05 0.03 0.03 0.02 0.02 0.01 0.01 0.01 0.01 0.01 0.01 0.02 0.03 0.05 0.05 0.05 0.05 0.05 0.05 0.05
0.01 0.01 0.02 0.02 0.03 0.02 0.02 0.02 0.03 0.03 0.03 0.03 0.03 0.04 0.03 0.04 0.05 0.05 0.05 0.05 0.05 0.05 0.05 0.03 0.03 0.02 0.02 0.01 0.01 0.02 0.01 0.01 0.02 0.03 0.03 0.04 0.04 0.03 0.03 0.03 0.03 0.03 0.03
0.02 0.02 0.02 0.04 0.04 0.04 0.04 0.04 0.03 0.03 0.02 0.02 0.02 0.03 0.03 0.04 0.04 0.05 0.05 0.04 0.04 0.04 0.04 0.03 0.03 0.03 0.03 0.03 0.03 0.03 0.03 0.03 0.03 0.03 0.04 0.03 0.02 0.02 0.01 0.01 0.02 0.02 0.02
0.02 0.03 0.03 0.03 0.04 0.04 0.05 0.04 0.04 0.04 0.04 0.04 0.04 0.04 0.04 0.04 0.05 0.05 0.04 0.03 0.03 0.03 0.02 0.02 0.03 0.03 0.03 0.03 0.03 0.04 0.03 0.03 0.02 0.02 0.02 0.02 0.01 0.01 0.01 0.01 0.01 0.02 0.02
0.02 0.02 0.02 0.03 0.03 0.03 0.03 0.03 0.02 0.03 0.03 0.03 0.04 0.05 0.04 0.04 0.04 0.04 0.04 0.03 0.03 0.03 0.03 0.02 0.02 0.02 0.03 0.04 0.04 0.03 0.02 0.02 0.02 0.01 0.01 0.01 0.01 0.01 0.01 0.02 0.03 0.02 0.02
0.02 0.02 0.01 0.01 0.01 0.01 0.01 0.02 0.02 0.02 0.03 0.03 0.04 0.05 0.04 0.03 0.03 0.03 0.04 0.04 0.04 0.04 0.04 0.03 0.02 0.02 0.02 0.03 0.03 0.04 0.05 0.05 0.03 0.03 0.02 0.02 0.02 0.02 0.02 0.02 0.02 0.02 0.01
MSLP
1010.41 1010.86 1011.31 1011.73 1012.13 1012.51 1012.88 1013.24 1013.60 1013.95 1014.30 1014.61 1014.89 1015.12 1015.29 1015.40 1015.45 1015.47 1015.48 1015.49 1015.52 1015.59 1015.70 1015.85 1016.03 1016.24 1016.45 1016.66 1016.85 1017.01 1017.13 1017.22 1017.25 1017.24 1017.16 1017.02 1016.82 1016.56 1016.25 1015.93 1015.63 1015.38 1015.22
1010.62 1011.07 1011.51 1011.91 1012.27 1012.60 1012.91 1013.22 1013.54 1013.88 1014.24 1014.59 1014.91 1015.17 1015.36 1015.46 1015.49 1015.46 1015.40 1015.34 1015.32 1015.36 1015.46 1015.63 1015.85 1016.10 1016.35 1016.59 1016.81 1016.99 1017.12 1017.22 1017.28 1017.29 1017.25 1017.15 1016.97 1016.73 1016.41 1016.05 1015.67 1015.32 1015.02
1010.91 1011.38 1011.83 1012.23 1012.57 1012.85 1013.10 1013.35 1013.62 1013.93 1014.28 1014.63 1014.96 1015.23 1015.42 1015.51 1015.49 1015.41 1015.28 1015.16 1015.09 1015.08 1015.17 1015.35 1015.59 1015.86 1016.15 1016.41 1016.64 1016.82 1016.96 1017.07 1017.14 1017.19 1017.19 1017.15 1017.03 1016.84 1016.57 1016.22 1015.82 1015.40 1015.00
1011.22 1011.74 1012.23 1012.64 1012.97 1013.22 1013.42 1013.61 1013.82 1014.08 1014.38 1014.71 1015.03 1015.30 1015.48 1015.55 1015.50 1015.37 1015.18 1015.00 1014.88 1014.83 1014.89 1015.06 1015.29 1015.58 1015.86 1016.13 1016.35 1016.52 1016.65 1016.75 1016.83 1016.91 1016.96 1016.99 1016.96 1016.85 1016.66 1016.36 1015.98 1015.54 1015.08
1011.54 1012.10 1012.64 1013.08 1013.41 1013.64 1013.79 1013.92 1014.06 1014.26 1014.52 1014.82 1015.12 1015.38 1015.55 1015.60 1015.54 1015.37 1015.15 1014.93 1014.75 1014.67 1014.69 1014.82 1015.04 1015.29 1015.56 1015.80 1015.99 1016.13 1016.23 1016.31 1016.39 1016.48 1016.57 1016.67 1016.72 1016.72 1016.61 1016.40 1016.08 1015.66 1015.19
1011.82 1012.43 1013.01 1013.48 1013.82 1014.03 1014.14 1014.21 1014.29 1014.43 1014.64 1014.90 1015.18 1015.43 1015.61 1015.67 1015.60 1015.44 1015.20 1014.95 1014.74 1014.61 1014.59 1014.68 1014.84 1015.06 1015.27 1015.46 1015.61 1015.70 1015.76 1015.81 1015.87 1015.96 1016.09 1016.23 1016.35 1016.43 1016.42 1016.30 1016.05 1015.68 1015.23
1012.06 1012.70 1013.31 1013.80 1014.14 1014.32 1014.40 1014.41 1014.44 1014.52 1014.68 1014.91 1015.18 1015.44 1015.63 1015.72 1015.68 1015.53 1015.30 1015.05 1014.82 1014.66 1014.59 1014.62 1014.73 1014.89 1015.04 1015.17 1015.26 1015.30 1015.31 1015.33 1015.37 1015.45 1015.58 1015.75 1015.92 1016.05 1016.11 1016.06 1015.88 1015.58 1015.18
1012.25 1012.90 1013.51 1014.00 1014.32 1014.48 1014.51 1014.48 1014.46 1014.49 1014.61 1014.82 1015.08 1015.35 1015.57 1015.70 1015.70 1015.59 1015.40 1015.16 1014.93 1014.75 1014.65 1014.63 1014.69 1014.78 1014.87 1014.95 1014.99 1014.99 1014.96 1014.95 1014.96 1015.03 1015.15 1015.31 1015.50 1015.65 1015.74 1015.74 1015.61 1015.37 1015.03
1012.41 1013.04 1013.62 1014.08 1014.37 1014.50 1014.49 1014.42 1014.34 1014.34 1014.42 1014.61 1014.87 1015.15 1015.39 1015.56 1015.62 1015.56 1015.42 1015.21 1015.00 1014.82 1014.70 1014.65 1014.66 1014.71 1014.77 1014.80 1014.81 1014.79 1014.76 1014.72 1014.72 1014.77 1014.88 1015.02 1015.18 1015.33 1015.41 1015.41 1015.31 1015.11 1014.83
1012.56 1013.14 1013.67 1014.08 1014.32 1014.40 1014.36 1014.24 1014.14 1014.09 1014.15 1014.31 1014.55 1014.83 1015.09 1015.29 1015.40 1015.39 1015.30 1015.15 1014.97 1014.82 1014.70 1014.65 1014.64 1014.67 1014.71 1014.74 1014.74 1014.73 1014.70 1014.68 1014.69 1014.73 1014.81 1014.92 1015.05 1015.15 1015.20 1015.18 1015.08 1014.90 1014.66
1012.73 1013.25 1013.71 1014.05 1014.23 1014.26 1014.18 1014.04 1013.90 1013.82 1013.84 1013.97 1014.18 1014.44 1014.69 1014.90 1015.03 1015.07 1015.03 1014.94 1014.81 1014.70 1014.62 1014.58 1014.59 1014.63 1014.68 1014.73 1014.77 1014.79 1014.80 1014.81 1014.84 1014.89 1014.96 1015.04 1015.12 1015.17 1015.17 1015.11 1014.98 1014.80 1014.60
1012.96 1013.40 1013.78 1014.05 1014.17 1014.16 1014.05 1013.88 1013.73 1013.62 1013.61 1013.68 1013.84 1014.05 1014.27 1014.45 1014.58 1014.65 1014.65 1014.61 1014.55 1014.49 1014.46 1014.47 1014.52 1014.60 1014.69 1014.78 1014.86 1014.93 1015.00 1015.06 1015.12 1015.19 1015.27 1015.33 1015.38 1015.38 1015.32 1015.21 1015.05 1014.87 1014.68
1013.27 1013.64 1013.93 1014.13 1014.20 1014.16 1014.04 1013.87 1013.70 1013.58 1013.52 1013.54 1013.63 1013.75 1013.90 1014.03 1014.13 1014.19 1014.22 1014.22 1014.22 1014.24 1014.28 1014.35 1014.46 1014.59 1014.72 1014.86 1015.00 1015.12 1015.24 1015.35 1015.46 1015.57 1015.66 1015.72 1015.75 1015.72 1015.62 1015.48 1015.29 1015.09 1014.91
1013.66 1013.96 1014.19 1014.33 1014.37 1014.32 1014.20 1014.05 1013.89 1013.75 1013.66 1013.61 1013.60 1013.63 1013.67 1013.71 1013.75 1013.79 1013.82 1013.85 1013.91 1013.99 1014.11 1014.25 1014.42 1014.60 1014.78 1014.97 1015.14 1015.31 1015.47 1015.63 1015.78 1015.92 1016.04 1016.12 1016.14 1016.11 1016.00 1015.84 1015.63 1015.43 1015.25
1014.12 1014.36 1014.54 1014.64 1014.67 1014.64 1014.55 1014.43 1014.29 1014.15 1014.02 1013.90 1013.80 1013.70 1013.62 1013.56 1013.51 1013.49 1013.50 1013.56 1013.66 1013.80 1013.98 1014.19 1014.41 1014.64 1014.85 1015.06 1015.26 1015.45 1015.64 1015.82 1016.01 1016.18 1016.33 1016.44 1016.48 1016.46 1016.37 1016.21 1016.01 1015.81 1015.63
1014.61 1014.81 1014.95 1015.04 1015.07 1015.07 1015.03 1014.96 1014.86 1014.73 1014.57 1014.39 1014.19 1013.97 1013.76 1013.57 1013.42 1013.33 1013.31 1013.36 1013.48 1013.66 1013.89 1014.15 1014.41 1014.67 1014.90 1015.12 1015.31 1015.51 1015.70 1015.90 1016.10 1016.30 1016.48 1016.62 1016.71 1016.72 1016.66 1016.53 1016.36 1016.17 1016.00
1015.08 1015.25 1015.37 1015.45 1015.51 1015.55 1015.57 1015.56 1015.51 1015.40 1015.23 1014.99 1014.70 1014.37 1014.03 1013.72 1013.46 1013.28 1013.20 1013.22 1013.35 1013.55 1013.81 1014.10 1014.38 1014.65 1014.89 1015.10 1015.28 1015.46 1015.64 1015.84 1016.05 1016.27 1016.48 1016.66 1016.79 1016.85 1016.84 1016.76 1016.62 1016.46 1016.31
1015.46 1015.61 1015.71 1015.80 1015.89 1015.98 1016.06 1016.12 1016.12 1016.04 1015.86 1015.59 1015.23 1014.80 1014.35 1013.92 1013.55 1013.28 1013.13 1013.12 1013.22 1013.42 1013.69 1013.98 1014.28 1014.54 1014.77 1014.97 1015.14 1015.30 1015.47 1015.66 1015.87 1016.11 1016.35 1016.57 1016.74 1016.86 1016.90 1016.87 1016.77 1016.65 1016.51
1015.71 1015.83 1015.92 1016.02 1016.13 1016.27 1016.42 1016.53 1016.59 1016.54 1016.38 1016.08 1015.67 1015.17 1014.63 1014.10 1013.63 1013.28 1013.06 1012.98 1013.04 1013.22 1013.47 1013.76 1014.04 1014.31 1014.53 1014.72 1014.88 1015.04 1015.20 1015.40 1015.62 1015.87 1016.13 1016.39 1016.60 1016.77 1016.86 1016.87 1016.82 1016.73 1016.62
1015.81 1015.91 1015.99 1016.08 1016.22 1016.39 1016.58 1016.75 1016.85 1016.85 1016.70 1016.41 1015.97 1015.43 1014.82 1014.21 1013.67 1013.23 1012.93 1012.79 1012.79 1012.92 1013.14 1013.40 1013.68 1013.94 1014.17 1014.36 1014.53 1014.70 1014.88 1015.09 1015.33 1015.60 1015.89 1016.17 1016.42 1016.62 1016.74 1016.80 1016.79 1016.73 1016.65
1015.78 1015.86 1015.92 1016.01 1016.15 1016.35 1016.57 1016.77 1016.91 1016.94 1016.83 1016.54 1016.11 1015.55 1014.91 1014.25 1013.64 1013.13 1012.76 1012.54 1012.48 1012.54 1012.71 1012.95 1013.20 1013.46 1013.70 1013.91 1014.11 1014.31 1014.53 1014.77 1015.04 1015.34 1015.65 1015.95 1016.22 1016.44 1016.59 1016.67 1016.69 1016.66 1016.60
1015.68 1015.73 1015.77 1015.85 1015.99 1016.19 1016.42 1016.65 1016.82 1016.88 1016.79 1016.54 1016.12 1015.57 1014.92 1014.24 1013.59 1013.02 1012.58 1012.28 1012.14 1012.14 1012.25 1012.43 1012.67 1012.92 1013.17 1013.41 1013.66 1013.90 1014.17 1014.45 1014.76 1015.09 1015.42 1015.73 1016.01 1016.24 1016.40 1016.50 1016.54 1016.53 1016.50
1015.58 1015.60 1015.62 1015.69 1015.82 1016.01 1016.24 1016.47 1016.66 1016.74 1016.68 1016.46 1016.07 1015.54 1014.91 1014.22 1013.55 1012.94 1012.43 1012.07 1011.84 1011.76 1011.80 1011.93 1012.13 1012.37 1012.63 1012.91 1013.20 1013.50 1013.81 1014.15 1014.49 1014.85 1015.19 1015.51 1015.79 1016.01 1016.17 1016.28 1016.33 1016.35 1016.34
1015.54 1015.55 1015.55 1015.60 1015.72 1015.89 1016.10 1016.33 1016.51 1016.60 1016.56 1016.37 1016.02 1015.52 1014.91 1014.24 1013.56 1012.92 1012.36 1011.93 1011.63 1011.46 1011.42 1011.49 1011.64 1011.86 1012.12 1012.42 1012.75 1013.09 1013.46 1013.83 1014.21 1014.58 1014.93 1015.25 1015.52 1015.74 1015.90 1016.00 1016.06 1016.10 1016.12
1015.62 1015.62 1015.62 1015.65 1015.75 1015.89 1016.08 1016.28 1016.44 1016.52 1016.49 1016.32 1016.00 1015.54 1014.96 1014.31 1013.63 1012.97 1012.38 1011.88 1011.50 1011.26 1011.14 1011.13 1011.23 1011.42 1011.67 1011.97 1012.31 1012.69 1013.08 1013.49 1013.89 1014.27 1014.63 1014.94 1015.20 1015.41 1015.56 1015.67 1015.74 1015.79 1015.84
1015.82 1015.83 1015.83 1015.86 1015.93 1016.04 1016.19 1016.35 1016.47 1016.53 1016.49 1016.32 1016.02 1015.58 1015.03 1014.40 1013.73 1013.06 1012.44 1011.90 1011.46 1011.14 1010.94 1010.86 1010.90 1011.04 1011.26 1011.55 1011.89 1012.27 1012.68 1013.10 1013.51 1013.90 1014.26 1014.57 1014.83 1015.03 1015.19 1015.30 1015.38 1015.45 1015.53
Thickness
5823 5819 5813 5808 5801 5795 5789 5785 5781 5777 5773 5769 5765 5762 5761 5762 5763 5764 5763 5762 5762 5762 5760 5760 5760 5760 5760 5759 5759 5758 5756 5755 5757 5753 5751 5755 5759 5759 5759 5758 5757 5756 5754
5821 5817 5812 5808 5801 5794 5789 5786 5781 5778 5774 5771 5768 5765 5764 5764 5764 5765 5764 5763 5763 5762 5762 5759 5759 5760 5759 5758 5758 5757 5754 5754 5757 5752 5745 5742 5746 5754 5760 5758 5757 5756 5755
5821 5816 5811 5806 5801 5795 5790 5788 5783 5779 5776 5773 5770 5767 5765 5764 5764 5763 5763 5763 5763 5763 5762 5761 5760 5760 5759 5757 5757 5756 5753 5751 5754 5755 5747 5739 5735 5743 5751 5755 5755 5754 5753
5825 5818 5812 5806 5802 5798 5794 5790 5784 5780 5777 5774 5770 5766 5761 5759 5761 5763 5764 5764 5763 5763 5762 5761 5760 5759 5759 5757 5757 5757 5755 5752 5749 5752 5753 5750 5747 5739 5738 5745 5750 5751 5749
5827 5819 5814 5809 5806 5802 5797 5791 5786 5781 5778 5775 5771 5767 5764 5763 5763 5764 5763 5763 5763 5763 5762 5762 5761 5759 5758 5757 5757 5757 5755 5754 5751 5750 5750 5749 5748 5747 5738 5734 5739 5743 5745
5829 5822 5818 5813 5807 5803 5798 5792 5785 5781 5778 5775 5772 5767 5764 5762 5761 5760 5760 5760 5762 5762 5762 5762 5760 5759 5758 5757 5756 5756 5755 5753 5752 5751 5750 5748 5744 5742 5740 5735 5735 5735 5739
5829 5822 5816 5811 5806 5802 5798 5793 5786 5780 5778 5775 5772 5769 5766 5763 5760 5759 5759 5759 5759 5759 5760 5761 5759 5758 5757 5756 5756 5754 5753 5752 5751 5749 5749 5749 5747 5747 5743 5738 5734 5733 5735
5832 5824 5818 5813 5808 5803 5798 5793 5786 5781 5778 5775 5772 5769 5767 5764 5762 5762 5761 5760 5759 5759 5760 5759 5757 5757 5756 5756 5754 5753 5752 5751 5750 5749 5748 5746 5746 5746 5743 5739 5734 5728 5727
5832 5825 5820 5815 5809 5803 5798 5793 5787 5782 5779 5776 5772 5769 5766 5763 5762 5761 5760 5759 5758 5758 5758 5757 5756 5755 5755 5754 5752 5750 5749 5748 5747 5746 5745 5744 5743 5743 5742 5741 5737 5728 5720
5832 5827 5822 5817 5811 5806 5800 5795 5789 5783 5780 5776 5773 5769 5766 5763 5761 5759 5757 5757 5756 5755 5754 5754 5753 5753 5752 5751 5749 5747 5747 5745 5744 5743 5741 5740 5740 5740 5739 5737 5735 5732 5724
5831 5824 5820 5819 5813 5808 5801 5794 5788 5783 5779 5776 5772 5768 5765 5763 5761 5758 5757 5755 5754 5753 5751 5750 5750 5749 5749 5748 5746 5744 5744 5741 5740 5739 5738 5736 5736 5734 5734 5733 5731 5728 5724
5832 5827 5821 5817 5812 5806 5799 5793 5788 5783 5779 5776 5772 5767 5764 5762 5759 5757 5755 5754 5752 5751 5749 5748 5746 5745 5745 5744 5742 5740 5739 5737 5735 5734 5733 5732 5731 5729 5728 5727 5725 5723 5720
5828 5823 5819 5813 5808 5803 5798 5792 5788 5784 5780 5776 5770 5765 5762 5759 5757 5755 5754 5752 5750 5748 5747 5745 5743 5742 5741 5739 5738 5736 5735 5733 5732 5730 5727 5726 5725 5723 5722 5720 5719 5717 5716
5823 5818 5813 5808 5804 5800 5796 5791 5787 5783 5779 5773 5768 5763 5760 5757 5755 5753 5751 5749 5747 5745 5743 5742 5740 5738 5737 5735 5734 5732 5730 5728 5727 5725 5723 5721 5719 5717 5716 5715 5712 5711 5707
5818 5814 5808 5804 5800 5796 5792 5788 5784 5781 5777 5771 5766 5762 5759 5757 5753 5751 5748 5745 5743 5742 5739 5737 5735 5733 5732 5730 5728 5727 5726 5723 5721 5719 5718 5715 5713 5711 5710 5708 5705 5703 5699
5814 5811 5807 5802 5796 5792 5788 5784 5781 5778 5774 5768 5763 5760 5757 5753 5750 5746 5744 5741 5739 5736 5734 5731 5729 5726 5724 5722 5721 5720 5719 5717 5715 5713 5711 5709 5707 5704 5702 5700 5698 5695 5692
5811 5807 5804 5800 5795 5791 5787 5781 5778 5775 5770 5764 5760 5757 5753 5749 5746 5743 5740 5736 5734 5731 5728 5725 5722 5719 5716 5715 5714 5713 5712 5710 5708 5706 5704 5703 5700 5697 5695 5693 5690 5687 5684
5806 5803 5801 5797 5794 5790 5785 5780 5776 5770 5765 5760 5756 5752 5749 5745 5741 5738 5734 5731 5729 5726 5723 5719 5717 5713 5710 5708 5707 5706 5705 5703 5700 5698 5696 5693 5690 5688 5686 5684 5682 5678 5675
5803 5800 5798 5795 5790 5785 5781 5775 5769 5764 5759 5754 5751 5748 5745 5740 5737 5733 5729 5727 5724 5720 5717 5715 5711 5707 5703 5701 5700 5698 5698 5696 5692 5690 5687 5684 5681 5677 5676 5674 5672 5669 5665
5799 5796 5793 5789 5782 5778 5775 5768 5762 5757 5752 5749 5746 5744 5740 5736 5731 5728 5725 5722 5718 5715 5712 5708 5705 5701 5697 5694 5692 5691 5691 5688 5684 5681 5678 5674 5671 5668 5666 5665 5662 5658 5656
5791 5789 5785 5779 5775 5772 5767 5760 5755 5750 5748 5746 5742 5739 5735 5731 5727 5723 5720 5716 5713 5709 5705 5701 5698 5695 5691 5687 5685 5683 5683 5681 5678 5674 5670 5665 5661 5659 5657 5655 5652 5648 5645
5781 5779 5774 5769 5767 5765 5759 5751 5746 5745 5743 5739 5735 5731 5728 5726 5723 5718 5714 5711 5707 5702 5698 5694 5690 5687 5684 5680 5677 5675 5673 5671 5669 5665 5661 5656 5652 5650 5647 5645 5642 5639 5637
5771 5769 5764 5759 5757 5755 5750 5743 5740 5738 5734 5730 5726 5723 5721 5717 5714 5710 5707 5704 5700 5696 5692 5688 5684 5681 5678 5673 5669 5666 5664 5662 5659 5655 5651 5647 5643 5641 5638 5635 5633 5630 5629
5760 5758 5753 5748 5745 5743 5740 5736 5733 5729 5725 5720 5717 5715 5712 5708 5704 5701 5698 5695 5691 5688 5685 5681 5678 5675 5670 5666 5661 5658 5655 5652 5649 5646 5641 5638 5635 5631 5629 5627 5624 5622 5620
5750 5747 5743 5738 5734 5732 5729 5727 5725 5721 5715 5712 5709 5707 5704 5700 5695 5690 5685 5683 5678 5677 5675 5674 5670 5667 5662 5656 5652 5649 5647 5644 5640 5637 5634 5630 5627 5624 5621 5619 5616 5614 5611
5739 5736 5732 5729 5725 5723 5720 5717 5716 5712 5707 5704 5701 5699 5697 5693 5689 5682 5676 5670 5668 5665 5664 5662 5659 5655 5651 5647 5643 5640 5637 5634 5630 5628 5625 5622 5619 5616 5613 5610 5607 5604 5601